User: anonymous   Login
Location: ActonStarParty
(42.4766°N, 71.4538°W)
Time: 13:46:34
(UTC-05:00)
Language:

ATLAS 5 CENTAUR R/B - Orbit

View from above orbital plane
View from above orbital plane
View from above satellite
View from above satellite

Ground track
Ground track

The orbit data is extracted from the following two-line orbital elements,

1 32379U 07060B   15056.92881377 0.00003300  00000-0  12128-2 0    04
2 32379  60.8522 293.4309 5192868 210.1160 105.7285  5.24021218    02
Epoch (UTC): 25 February 2015 22:17:29
Eccentricity: 0.5192868
inclination: 60.8522°
perigee height: 352 km
apogee height: 14894 km
right ascension of ascending node: 293.4309°
argument of perigee: 210.1160°
revolutions per day: 5.24021218
mean anomaly at epoch: 105.7285°
orbit number at epoch: 0

The dashed part of the orbit path shows where the satellite is in the earth's shadow,  

DLR